www.pogodaiklimat.ru

Погода и климат >> Архив погоды >> Норвегия >> Stromtangen Fyr


ПОГОДА в Stromtangen Fyr

  • Прогноз погоды в Stromtangen Fyr
  • Монитор погоды в Stromtangen Fyr
  • Климат города

АРХИВ ПОГОДЫ в Stromtangen Fyr

Время (UTC), дата Ветер
(напр.,м/с)
 
Видим.   Явления Облачность Т
(С)
Тd
(С)
f
(%)
Тe
(С)
Тes
(С)
Комфортность P
(гПа)
Po
(гПа)
Тmin
(С)
Tmax
(С)
R
(мм)
R24
(мм)
S
(см)
23 6.12 СВ 8
{9}
н/о н/о +1.3 -4 -4 999.8 998.5
22 6.12 СВ 7
{9}
н/о н/о +1.2 -4 -4 1001.1 999.8
00 7.12 СВ 6
{9}
н/о н/о +1.3 -3 -3 999.4 998.1
01 7.12 СВ 5
{7}
н/о н/о +1.4 -3 -3 999.7 998.4
02 7.12 С 3
{7}
н/о н/о +1.3 -1 -1 999.7 998.4
03 7.12
{5}
н/о н/о +1.1 999.0 997.7
05 7.12 С 2
{5}
н/о н/о +0.9 -1 -1 998.9 997.6
04 7.12 С 4
{5}
н/о н/о +1.1 -2 -2 999.3 998.0
06 7.12 СЗ 4
{7}
н/о н/о +1.0 -3 -3 1000.4 999.1 +0.5 +1.6
07 7.12 С 2
{6}
н/о н/о +1.0 -1 -1 1000.3 999.0
08 7.12 СВ 6
{7}
н/о н/о +1.0 -4 -4 998.4 997.1
09 7.12 В 4
{8}
н/о н/о +1.0 -3 -3 998.3 997.0
11 7.12 Ю 3
{3}
н/о н/о +1.3 -1 -1 998.7 997.4
10 7.12 штиль 0
{5}
н/о н/о +1.1 +2 +2 998.7 997.4
12 7.12 С 2
{8}
н/о н/о +1.3 -0 -0 997.7 996.4
13 7.12 В 6
{7}
н/о н/о +1.5 -3 -3 995.6 994.3
14 7.12 В 2
{9}
н/о н/о +1.0 -1 -1 995.3 994.0
15 7.12 СВ 5
{6}
н/о н/о +1.1 -3 -3 993.7 992.4
17 7.12 н/о
16 7.12 В 5
{7}
н/о н/о +1.4 -3 -3 992.3 991.0
18 7.12 В 7
{9}
н/о н/о +1.9 -3 -3 989.2 987.9 +0.8 +1.9
21 7.12 СВ 10
{12}
н/о н/о +2.6 -3 -3 984.4 983.1
00 8.12 С 4
{12}
н/о н/о +2.2 -1 -1 982.2 980.9
01 8.12 С 5
{8}
н/о н/о +1.6 -2 -2 982.1 980.8
02 8.12 С 5
{9}
н/о н/о +1.2 -3 -3 982.2 980.9
03 8.12 СЗ 8
{10}
н/о н/о +0.8 -5 -5 982.7 981.4
05 8.12 СЗ 7
{9}
н/о н/о +1.4 -4 -4 983.5 982.2
04 8.12 С 5
{10}
н/о н/о +1.1 -3 -3 983.1 981.8
06 8.12 СЗ 5
{10}
н/о н/о +1.1 -3 -3 983.8 982.5 +0.8 +2.8
07 8.12 СЗ 3
{6}
н/о н/о +1.2 -2 -2 983.9 982.6
08 8.12 З 3
{5}
н/о н/о +1.2 -2 -2 983.8 982.5
09 8.12
{4}
н/о н/о +1.0 983.1 981.8
11 8.12 В 3
{5}
н/о н/о +1.5 -1 -1 981.9 980.6
10 8.12 В 3
{4}
н/о н/о +1.1 -2 -2 982.8 981.5
12 8.12 СВ 5
{6}
н/о н/о +1.5 -3 -3 980.7 979.4
13 8.12 СВ 6
{7}
н/о н/о +1.5 -3 -3 979.8 978.5
14 8.12 СВ 7
{8}
н/о н/о +1.7 -3 -3 978.7 977.4
15 8.12 СВ 8
{10}
н/о н/о +1.8 -3 -3 977.7 976.4
17 8.12 СВ 7
{9}
н/о н/о +2.1 -3 -3 976.1 974.8
16 8.12 СВ 8
{9}
н/о н/о +1.9 -3 -3 976.8 975.5
18 8.12 СВ 6
{10}
н/о н/о +2.1 -2 -2 975.6 974.3 +0.9 +2.2
19 8.12 н/о
20 8.12 С 3
{6}
н/о н/о +2.1 -0 -0 974.9 973.6
21 8.12 С 4
{6}
н/о н/о +1.6 -2 -2 974.7 973.4
23 8.12 С 5
{6}
н/о н/о +1.0 -3 -3 974.4 973.1
22 8.12 С 4
{6}
н/о н/о +1.5 -2 -2 974.6 973.3
00 9.12 С 4
{7}
н/о н/о +0.8 -3 -3 974.6 973.3
01 9.12 С 4
{7}
н/о н/о +0.5 -3 -3 975.0 973.7
02 9.12 С 3
{6}
н/о н/о +0.5 -2 -2 975.6 974.3
03 9.12 С 5
{7}
н/о н/о +0.5 -4 -4 975.9 974.6
05 9.12 С 5
{8}
н/о н/о +0.9 -3 -3 977.2 975.9
04 9.12 С 5 н/о н/о +1.0 976.5 975.2
06 9.12 С 4
{8}
н/о н/о +0.7 -3 -3 978.2 976.9 +0.4 +2.2
07 9.12 С 3
{6}
н/о н/о +0.6 -2 -2 979.3 978.0
08 9.12 С 3
{5}
н/о н/о +0.7 -2 -2 980.4 979.1
09 9.12 СЗ 3
{6}
н/о н/о +1.3 -1 -1 981.6 980.3
11 9.12 СЗ 4
{6}
н/о н/о +1.8 -2 -2 983.2 981.9
10 9.12 С 4
{7}
н/о н/о +1.7 -2 -2 982.4 981.1
12 9.12 СЗ 4
{7}
н/о н/о +2.4 -1 -1 983.9 982.6
13 9.12 СЗ 5
{6}
н/о н/о +2.9 -1 -1 984.9 983.6
14 9.12 З 4
{6}
н/о н/о +2.8 -0 -0 985.8 984.5
15 9.12 СЗ 4
{6}
н/о н/о +3.0 0 0 986.8 985.5
17 9.12 СЗ 5
{7}
н/о н/о +3.6 0 0 988.7 987.4
16 9.12 З 5
{6}
н/о н/о +3.7 0 0 987.9 986.6
18 9.12 СЗ 6
{8}
н/о н/о +3.7 -0 -0 989.5 988.2 +0.6 +3.7
19 9.12 СЗ 7
{9}
н/о н/о +3.6 -1 -1 990.3 989.0
20 9.12 СЗ 7
{9}
н/о н/о +3.5 -1 -1 991.1 989.8
21 9.12 СЗ 7
{10}
н/о н/о +3.6 -1 -1 991.7 990.4
23 9.12 СЗ 9
{12}
н/о н/о +3.5 -2 -2 993.1 991.8
22 9.12 СЗ 8
{11}
н/о н/о +3.6 -1 -1 992.3 991.0
00 10.12 СЗ 9
{12}
н/о н/о +3.7 -1 -1 993.5 992.2
01 10.12 СЗ 9
{12}
н/о н/о +3.8 -1 -1 993.7 992.4
02 10.12 СЗ 9
{12}
н/о н/о +4.1 -1 -1 994.1 992.8
03 10.12 СЗ 8
{12}
н/о н/о +4.1 -0 -0 994.5 993.2
05 10.12 СЗ 7
{10}
н/о н/о +4.3 0 0 995.3 994.0
04 10.12 СЗ 9 н/о н/о +4.3 994.7 993.4
06 10.12 СЗ 8
{12}
н/о н/о +4.6 0 0 995.7 994.4 +3.3 +4.6
07 10.12 СЗ 9
{12}
н/о н/о +4.5 -0 -0 996.2 994.9
08 10.12 СЗ 9
{12}
н/о н/о +4.8 0 0 996.9 995.6
09 10.12 СЗ 10
{12}
н/о н/о +5.1 0 0 997.5 996.2
11 10.12 СЗ 7
{10}
н/о н/о +5.4 +2 +2 999.1 997.8
10 10.12 СЗ 8
{12}
н/о н/о +5.0 +1 +1 998.4 997.1
12 10.12 С 7
{12}
н/о н/о +6.1 +2 +2 999.9 998.6
13 10.12 С 7
{11}
н/о н/о +5.8 +2 +2 1000.9 999.6
14 10.12 С 7
{12}
н/о н/о +5.7 +2 +2 1002.1 1000.8
15 10.12 С 9
{15}
н/о н/о +5.8 +1 +1 1003.2 1001.9
17 10.12 С 10
{15}
н/о н/о +5.3 +1 +1 1005.1 1003.8
16 10.12 С 10
{17}
н/о н/о +5.6 +1 +1 1004.0 1002.7
18 10.12 С 9
{17}
н/о н/о +5.0 0 0 1006.2 1004.9 +4.4 +6.2
19 10.12 С 9
{13}
н/о н/о +5.1 +1 +1 1007.4 1006.1
20 10.12 С 8
{13}
н/о н/о +5.0 +1 +1 1008.3 1007.0
21 10.12 С 8
{13}
н/о н/о +5.0 +1 +1 1009.5 1008.2
23 10.12 С 7
{13}
н/о н/о +4.4 0 0 1011.4 1010.1
22 10.12 С 9
{13}
н/о н/о +4.9 0 0 1010.4 1009.1
00 11.12 С 8
{13}
н/о н/о +4.5 0 0 1012.2 1010.9
01 11.12
{13}
н/о н/о +4.6 1013.1 1011.8
02 11.12 С 7
{11}
н/о н/о +4.5 0 0 1014.1 1012.8
03 11.12 С 6
{10}
н/о н/о +4.3 +1 +1 1015.0 1013.7
05 11.12 С 6
{9}
н/о н/о +4.2 0 0 1016.8 1015.5
04 11.12 С 6
{9}
н/о н/о +3.9 0 0 1015.8 1014.5
06 11.12 С 6
{13}
н/о н/о +4.5 +1 +1 1017.9 1016.6 +3.9 +5.2
07 11.12 С 6
{10}
н/о н/о +3.9 0 0 1018.4 1017.1
08 11.12 С 7
{10}
н/о н/о +3.6 -1 -1 1019.5 1018.2
09 11.12 С 6
{9}
н/о н/о +3.7 -0 -0 1020.5 1019.2
11 11.12 С 6
{9}
н/о н/о +4.3 +1 +1 1021.9 1020.6
10 11.12 С 5
{9}
н/о н/о +4.0 +1 +1 1021.3 1020.0
12 11.12 С 5
{10}
н/о н/о +4.5 +1 +1 1022.4 1021.1
13 11.12 С 5 н/о н/о +4.2 1023.1 1021.8
14 11.12 С 5 н/о н/о +3.4 1023.6 1022.3
15 11.12 С 4 н/о н/о +2.5 1024.2 1022.9
17 11.12 С 7
{8}
н/о н/о +2.1 -3 -3 1025.3 1024.0
16 11.12 С 6 н/о н/о +2.3 1024.7 1023.4
18 11.12 СВ 6 н/о н/о +1.8 -3 -3 1025.9 1024.6
19 11.12 СВ 6
{8}
н/о н/о +1.8 -3 -3 1026.4 1025.1
20 11.12 СВ 6
{8}
н/о н/о +1.7 -3 -3 1027.0 1025.7
21 11.12 СВ 5
{9}
н/о н/о +1.5 -3 -3 1027.3 1026.0
23 11.12 СВ 4
{7}
н/о н/о +0.1 -4 -4 1028.3 1027.0
22 11.12 СВ 6
{7}
н/о н/о +0.9 -4 -4 1027.8 1026.5
00 12.12 С 3
{9}
н/о н/о -0.3 -3 -3 1028.7 1027.4
01 12.12
{6}
н/о н/о -0.2 1029.2 1027.9
02 12.12 С 3
{4}
н/о н/о -0.2 -3 -3 1030.0 1028.7
03 12.12 СВ 4
{5}
н/о н/о +0.4 -3 -3 1030.2 1028.9
05 12.12 СВ 4
{5}
н/о н/о +0.1 -4 -4 1030.8 1029.5
04 12.12 СВ 4
{6}
н/о н/о -0.1 -4 -4 1030.6 1029.3
06 12.12 СВ 3
{6}
н/о н/о +0.1 -3 -3 1031.2 1029.9 -0.6 +2.0
07 12.12 СВ 4
{5}
н/о н/о 0.0 -4 -4 1031.6 1030.3
08 12.12 СВ 4
{5}
н/о н/о -0.9 -5 -5 1032.0 1030.7
09 12.12 СВ 4
{5}
н/о н/о -0.6 -4 -4 1032.4 1031.1
11 12.12 СВ 5
{5}
н/о н/о +0.1 -4 -4 1032.8 1031.5
10 12.12 СВ 4
{5}
н/о н/о 0.0 -4 -4 1032.7 1031.4
12 12.12 СВ 4
{6}
н/о н/о +0.4 -3 -3 1032.9 1031.6
13 12.12 СВ 5
{5}
н/о н/о +0.2 -4 -4 1033.0 1031.7
14 12.12 СВ 4
{6}
н/о н/о -0.4 -4 -4 1033.2 1031.9
15 12.12 СВ 4
{5}
н/о н/о -1.2 -5 -5 1033.4 1032.1
17 12.12 В 5
{7}
н/о н/о -1.3 -6 -6 1033.7 1032.4
16 12.12 В 5
{7}
н/о н/о -1.5 -6 -6 1033.5 1032.2
18 12.12 В 5
{8}
н/о н/о -1.4 -6 -6 1034.0 1032.7 -1.6 +0.4
19 12.12 СВ 6
{8}
н/о н/о -1.7 -7 -7 1034.4 1033.1
20 12.12 В 5
{8}
н/о н/о -1.7 -7 -7 1034.6 1033.3
21 12.12 СВ 4
{7}
н/о н/о -1.9 -6 -6 1034.6 1033.3
23 12.12 СВ 3
{5}
н/о н/о -2.1 -6 -6 1035.0 1033.6
22 12.12 СВ 4
{6}
н/о н/о -2.0 -6 -6 1034.8 1033.4
00 13.12 СВ 5
{8}
н/о н/о -1.7 -7 -7 1034.9 1033.6
01 13.12 С 4
{7}
н/о н/о -1.8 -6 -6 1034.6 1033.3
02 13.12 С 3
{5}
н/о н/о -2.1 -6 -6 1034.6 1033.2
03 13.12 СВ 4
{6}
н/о н/о -2.1 -6 -6 1034.3 1033.0
05 13.12 СВ 5 н/о н/о -2.0 1033.8 1032.5
04 13.12 СВ 4
{6}
н/о н/о -2.1 -6 -6 1034.1 1032.7
06 13.12 СВ 6
{7}
н/о н/о -1.8 -7 -7 1033.9 1032.6 -2.2 -1.3
07 13.12 СВ 5 н/о н/о -1.8 1034.0 1032.7
08 13.12 СВ 5
{7}
н/о н/о -1.9 -7 -7 1034.1 1032.8
09 13.12 СВ 6
{8}
н/о н/о -1.8 -7 -7 1034.1 1032.8
11 13.12 СВ 5
{8}
н/о н/о -1.7 -7 -7 1034.1 1032.8
10 13.12 СВ 5
{8}
н/о н/о -1.9 -7 -7 1034.3 1033.0
12 13.12 СВ 4
{8}
н/о н/о -1.7 -6 -6 1034.0 1032.7
13 13.12
{7}
н/о н/о -2.0 1033.9 1032.6
14 13.12
{6}
н/о н/о -2.3 1034.3 1032.9
15 13.12 СВ 5
{7}
н/о н/о -2.6 -8 -8 1034.3 1032.9
17 13.12 СВ 7
{11}
н/о н/о -2.5 -9 -9 1034.3 1032.9
16 13.12 СВ 8
{11}
н/о н/о -2.2 -9 -9 1034.1 1032.8
18 13.12 СВ 4
{11}
н/о н/о -2.9 -7 -7 1034.6 1033.2 -2.9 -1.5
19 13.12 СВ 4
{7}
н/о н/о -2.9 -7 -7 1034.7 1033.3
20 13.12 СВ 4
{8}
н/о н/о -3.2 -8 -8 1034.8 1033.4
21 13.12 СВ 4
{7}
н/о н/о -3.1 -8 -8 1035.1 1033.7
22 13.12 СВ 8
{9}
н/о н/о -3.0 -10 -10 1034.9 1033.5

 

Местоположение метеостанции Stromtangen Fyr (Норвегия): широта 59.15 долгота 10.83 высота над уровнем моря 10 м.

В архиве по умолчанию представлена погода в Stromtangen Fyr за последнюю неделю. Архивные данные за месяц целиком и за предыдущие месяцы, начиная с января 2011 года, Вы можете получить, выбрав интересующий диапазон дат из раскрывающегося списка и нажав кнопку "Ввод!".


*Определитесь, кто Вы:
робот инопланетянин человек

Внимание! Время в таблицах - всемирное. Для получения местного времени необходимо прибавить поправку, которая в Stromtangen Fyr равна 1 ч.

Смотрите также архив погоды в соседних городах и на ближайших метеорологических станциях:

Погода в Ferder Fyr (Норвегия) (22 км)
Погода в Sarpsborg (Норвегия) (22 км)
Погода в Rygge (Норвегия) (26 км)
Погода в Melsom (Норвегия) (29 км)
Погода в Nordkoster (Швеция) (29 км)
Погода в Gullholmen (Норвегия) (34 км)
Погода в Svenner Fyr (Норвегия) (44 км)
Погода в As (Норвегия) (57 км)
Погода в Sande-Galleberg (Норвегия) (63 км)
Погода в Vaderoarna (Швеция) (65 км)

Пояснения к столбцам:

Ветер - указаны скорость ветра в м/с - средняя за 10 мин, порывы в срок и между сроками (в фигурных скобках) и направление, откуда дует ветер: С - северный, СВ - северо-восточный, В - восточный, ЮВ - юго-восточный, Ю - южный, ЮЗ - юго-западный, З - западный, СЗ - северо-западный.
Видимость - горизонтальная дальность видимости в метрах или километрах. При видимости от 1 до 10 км при отсутствии осадков обычно наблюдается дымка, при ухудшении видимости до 1 км и менее - туман. В сухую погоду видимость может ухудшаться дымом, пылью или мглою.
Явления - указаны атмосферные явления, наблюдавшиеся в срок или в последний час перед сроком; фигурными скобками обозначены явления, наблюдавшиеся между сроками (за 1-3 часа до срока); квадратными скобками обозначены град или гололедные отложения с указанием их диаметра в мм.
Облачность - указаны через наклонную черту общая и нижняя облачность в баллах и высота нижней границы облаков в метрах; квадратными скобками обозначены формы облаков: Ci - перистые, Cs - перисто-слоистые, Cc - перисто-кучевые, Ac - высококучевые, As - высокослоистые, Sc - слоисто-кучевые, Ns - слоисто-дождевые, Cu - кучевые, Cb - кучево-дождевые. Подробнее классификацию облаков см. в Атласе облаков (PDF).
T - Температура воздуха - температура, измеренная на высоте 2 м над землей.
Td - Температура точки росы - температура, при понижении до которой содержащийся в воздухе водяной пар достигнет насыщения.
f - Относительная влажность воздуха - влажноcть воздуха, измеренная на высоте 2 м над землей.
Te - Эффективная температура - температура, которую ощущает одетый по сезону человек в тени. Характеристика душности погоды. При расчете учитывается влияние влажности воздуха и скорости ветра на теплоощущения человека.
Tes - Эффективная температура на солнце - температура, которую ощущает человек, с поправкой на солнечный нагрев. Характеристика знойности погоды. Зависит от высоты солнца над горизонтом, облачности и скорости ветра. Ночью, в пасмурную погоду, а также при ветре 12 м/с и более поправка равна нулю.
P - Атмосферное давление - приведенное к уровню моря атмосферное давление.
Po - Атмосферное давление - измеренное на уровне метеостанции атмосферное давление.
Tmin - Минимальная температура - минимум температуры воздуха на высоте 2 м над землей.
Tmax - Максимальная температура - максимум температуры воздуха на высоте 2 м над землей.
R - Количество осадков - Количество выпавших осадков за период времени, мм. При наведении курсора мыши на число - период времени, за который выпало указанное количество осадков.
R24 - Количество осадков - Количество выпавших осадков за 24 часа, мм.
S - Снежный покров - Высота снежного покрова, см. При наведении курсора мыши на число - состояние снежного покрова и степень покрытия местности в баллах.